Showing default

ORBCOMM FM 18, 25414

Orbit data source: Space-Track

ORBCOMM FM 18, 25414 is a payload satellite owned by Orbcomm (US) in LEO that was launched on Sun, 02 Aug 1998 UTC via a PEGASUS XL/HAPS launch vehicle from the Pegasus Launch, Eastern Range Air Space (ERAS). Payload-class satellites include a variety of spacecraft equipped with specific instruments for various scientific and technological missions. These include communications satellites like Starlink; space stations such as the ISS; scientific satellites like the Hubble; Earth observation satellites from companies like Planet Labs, Umbra, and HawkEye 360; GPS; miniature CubeSats for education and research; and military/defense satellites.

Loading next visibility...
Identifier
25414, 1998-046B
Orbit
LEO
Country
Flag of USUS / ORB
Related business
Manufacturer
OSC-Germantown
Mission
Non-operational Commercial Communications
Bus & Motor
MICROSTAR, Unknown motor
Mass
42 kg wet, 42 kg dry
Launch date (UTC)
1998-08-02 (27 years ago)
Launch vehicle
PEGASUS XL/HAPS
Launch site
Pegasus Launch, Eastern Range Air Space (ERAS)
Object type
Payload
Rocket body
Debris
Shape & HBR
Cyl + 2 Pan, 4.2 m
Radar Cross Section
1.484 m², Medium (>0.1 m² and < 1m²)

Expand to show TLE details & history
Last TLE update: 17 hours ago

TLE from 17 hours ago
0 ORBCOMM FM 18
1 25414U 98046B   25342.56258825  .00002898  00000-0  97300-3 0  9999
2 25414  44.9929  67.0569 0003057 102.7038 257.4152 14.39135871429366
Epoch: 2025-12-08T13:30Z
TLE epoch observation values (Epoch: 2025-12-08T13:30:07.624Z)
Latitude
-0.00006°
Longitude
146.96524°
Altitude
761.829 km
Speed
7.475 km/s
True Right ascension
04h 28m 13s
True Declination
0° 00' 00"
Sunlit
Object was in full shadow at epoch
Visualization orbit readout
Latitude
Unknown
Longitude
Unknown
Altitude
Unknown
Speed
Unknown
Apparent Right ascension
Unknown
Apparent Declination
Unknown
Sunlit
N/A
Visualization observer readout
Local Sidereal Time
04:49:08
Azimuth
Unknown
Elevation
Unknown
Doppler factor
Unknown
Orbital elements
Apogee altitude
765.086 km
Perigee altitude
760.72 km
Semi-major axis
7,141.04 km
Eccentricity
0.00031
Inclination
44.9929°
RAAN
67.0569°
Arg. of periapsis
102.7038°
True anomaly
257.38101°
Mean anomaly
257.4152°
Eccentric anomaly
257.39811°
Mean motion
3.59667 °/min
Orbital period
100.09 mins
BSTAR
0.000973
Loading maneuver chart data...
Computing Atmospheric mass density...
Loading historical data...
Loading historical data...
Loading historical data...
Loading historical data...
Loading historical data...
Loading historical data...
Loading historical data...

Documentation

Showing up to 5 results
|